Regional Weather Roundup
Issued by NWS Upton, NY

Home | Current Version | Previous Version | Text Only | Print | Product List | Glossary On
Versions: 1 2 3 4 5 6 7 8 9 10 11 12 13 14 15 16 17 18 19 20 21 22 23 24 25 26 27 28 29 30 31 32 33 34 35 36 37 38 39 40 41 42 43 44 45 46 47 48 49 50
000
ASUS41 KOKX 281908
RWROKX

REGIONAL WEATHER ROUNDUP
NATIONAL WEATHER SERVICE NEW YORK NY
300 PM EDT WED SEP 28 2016

NOTE: "FAIR" INDICATES FEW OR NO CLOUDS BELOW 12,000 FEET WITH NO
SIGNIFICANT WEATHER AND/OR OBSTRUCTIONS TO VISIBILITY.

NYZ071-072-176-178-NJZ106-104-282000-
NEW YORK CITY METRO AREA

CITY           SKY/WX    TMP DP  RH WIND       PRES   REMARKS
Central Park   PTSUNNY   68  57  68 E8G16     30.16R
LaGuardia APRT CLOUDY    69  57  65 NE22G28   30.13R
Kennedy INTL   CLOUDY    67  56  67 E18       30.14R
Newark/Liberty PTSUNNY   71  58  63 NE16G22   30.12R
Bronx Bot Gard   N/A     66  55  68 E16       30.13F
Wall St Helipt NOT AVBL
Teterboro      CLOUDY    69  56  62 NE12      30.12S
$$

NYZ177-179-078>081-282000-
LONG ISLAND NEW YORK

CITY           SKY/WX    TMP DP  RH WIND       PRES   REMARKS
Farmingdale    CLOUDY    65  56  72 E12G18    30.14R
MacArthur/ISP  CLOUDY    64  55  72 NE14G25   30.14R
Shirley        NOT AVBL
Riverhead      NOT AVBL
Westhampton    CLOUDY    64  55  72 NE15G24   30.16R
Southampton      N/A     64  57  77 NE7       30.12R
Bridgehampton    N/A     63  57  82 E2        30.00R
East Hampton   CLOUDY    63  56  78 NE14G21   30.15R
Montauk          N/A     63  57  81 NE14G25   30.16R
$$

NYZ052-065-067-282000-
HUDSON VALLEY

CITY           SKY/WX    TMP DP  RH WIND       PRES   REMARKS
White Plains   CLOUDY    63  54  72 E9        30.16R
Newburgh       PTSUNNY   66  57  72 E12       30.17S
Montgomery     CLOUDY    68  55  63 SE12      30.16R
Poughkeepsie   CLOUDY    66  52  60 E9        30.16R
Albany         PTSUNNY   66  51  58 E8        30.19R
$$

NJZ001-105-106-008-010-013-015-019>022-104-282000-
NEW JERSEY

CITY           SKY/WX    TMP DP  RH WIND       PRES   REMARKS
Newark/Liberty PTSUNNY   71  58  63 NE16G22   30.12R
Teterboro      CLOUDY    69  56  62 NE12      30.12S
Caldwell       CLOUDY    68  57  68 E10G22    30.13S
Morristown     NOT AVBL
Somerville     CLOUDY    70  58  65 E10       30.09R
Linden         NOT AVBL
Sussex         CLOUDY    66  57  72 NE9       30.14S
Abdover          N/A     67  56  67 VRB6      30.13S
Trenton        CLOUDY    70  60  70 E14G20    30.07F
Millville      CLOUDY    70  67  90 E12       30.04R
Atlantic City  CLOUDY    70  65  84 E15G24    30.05R
Wrightstown    CLOUDY    68  64  86 E14       30.05F
Toms River     LGT RAIN  65  64  97 NE17G23   30.09S FOG
Belmar         LGT RAIN  65  61  87 E18G24    30.11S
$$

PAZ047>061-062-071-282000-
EASTERN PENNSYLVANIA

CITY           SKY/WX    TMP DP  RH WIND       PRES   REMARKS
Philadelphia   LGT RAIN  69  64  84 E14       30.06F
Allentown      PTSUNNY   70  57  63 E14       30.09S
Scranton       PTSUNNY   68  53  58 E8G21     30.10F
$$

CTZ002-004>006-009-010-012-RIZ004-006-007-MAZ004-011-015-282000-
SOUTHERN NEW ENGLAND
 IN CT

CITY           SKY/WX    TMP DP  RH WIND       PRES   REMARKS
Bradley INTL   CLOUDY    62  50  64 E10       30.21S
Hartford       CLOUDY    61  51  70 NE13      30.20R
Danbury        CLOUDY    61  52  72 E8        30.19R
Wtrbury/Oxford CLOUDY    59  48  67 E10G18    30.20S
Bridgeport     CLOUDY    66  54  63 NE14      30.15F
Meriden        CLOUDY    63  51  65 N9        30.20R
New Haven      CLOUDY    64  52  64 N12G18    30.18R
Chester        CLOUDY    61  54  77 NE9G15    30.19R
Groton         CLOUDY    64  54  69 NE17G29   30.16R
Wilimantic     CLOUDY    60  53  77 NE13G21   30.21R

 IN RI

CITY           SKY/WX    TMP DP  RH WIND       PRES   REMARKS
Providence     LGT RAIN  58  53  84 NE17      30.22R FOG
Block Island   CLOUDY    62  57  83 NE16G25   30.16R
Westerly       CLOUDY    62  53  72 N14G21    30.18R
 IN MA

CITY           SKY/WX    TMP DP  RH WIND       PRES   REMARKS
Boston         CLOUDY    56  52  86 NE20      30.26R
Worcester      LGT RAIN  52  49  89 NE10G22   30.24R
Westfield      CLOUDY    60  51  72 NE10      30.22R
Provincetown   CLOUDY    59  55  87 NE21G26   30.21R
Nantucket      CLOUDY    61  59  93 NE23G31   30.14S FOG
$$

ANZ330-335-338-340-345-350-353-355-282000-
COASTAL MARINE OBSERVATIONS


STATION/POSITION TIME  SKY/WX   TEMP    WIND        PRES    VSBY  WAVE
                                AIR SEA DIR/SP/G                  HT/PER
                 (UTC)          (F)     (DEG/KT/KT) (MB)    (MI)  (FT/S)
NY HARB ENTRANCE 1750            66 71   60/ 21/ 25 1019.3          7/ 6
20S FIRE ISLAND  1750            65 69   60/ 23/ 29 1018.3          7/ 6
GREAT SOUTH BAY  1830            64 69   50/ 17/ 19   N/A
23 SSW MONTAUK P 1750            64 67   50/ 23/ 29 1019.9          7/ 6
15 E BARNEGAT LI 1830               71                N/A           7/ 6
HUDSON CANYON    1750            69 69              1016.9          5/ 5
KINGS POINT      1830            65 72              1020.3
EXECUTION ROCKS  1845            66      70/ 17/ 21   N/A
CENTRAL LI SOUND 1830            64 72   50/ 17/ 21   N/A           3/ 5
EASTERN LI SOUND NOT AVBL
ROBBINS REEF     1830            67      70/ 17/ 19 1019.7
$$


>>>>>>>>>>>>>>>>>>>>>>>>>>>> KEY <<<<<<<<<<<<<<<<<<<<<<<<<<<
>                                                          <
>     SKY/WX - Sky Condition/Present Weather               <
>     TMP    - Temperature in Fahrenheit                   <
>     DP     - Dew Point in Fahrenheit                     <
>     RH     - Relative Humidity in Percent                <
>     WIND   - Direction (from) and Speed in MPH           <
>     PRES   - Mean Sea Level Pressure (inches of Hg)      <
>     WCI    - Wind Chill Index                            <
>     VSB    - VISIBILITY IN MILES                         <
>     HX     - HEAT INDEX                                  <
>     TC     - TEMPERATURE IN CELSIUS                      <
>     VRB    - VARIABLE WIND DIRECTION                     <
>                                                          <
>>>>>>>>>>>>>>>>>>>>>>>>>>>> KEY <<<<<<<<<<<<<<<<<<<<<<<<<<<




USA.gov is the U.S. government's official web portal to all federal, state and local government web resources and services.